Regional Weather Roundup
Issued by NWS Bismarck, ND

Home | Current Version | Previous Version | Text Only | Print | Product List | Glossary On
Versions: 1 2 3 4 5 6 7 8 9 10 11 12 13 14 15 16 17 18 19 20 21 22 23 24 25 26 27 28 29 30 31 32 33 34 35 36 37 38 39 40 41 42 43 44 45 46 47 48 49 50
000
ASUS43 KBIS 020310
RWRBIS

NWR BROADCAST TEXT
NATIONAL WEATHER SERVICE BISMARCK ND
1000 PM CDT WED OCT 01 2014

NOTE: "FAIR" INDICATES FEW OR NO CLOUDS BELOW 12,000 FEET WITH NO
SIGNIFICANT WEATHER AND/OR OBSTRUCTIONS TO VISIBILITY.


CITY           SKY/WX    TMP DP  RH WIND       PRES   REMARKS
WILLISTON      MOCLDY    50  43  77 W8        29.85R
MINOT          PTCLDY    48  44  86 SW7       29.79S
MINOT AFB      PTCLDY    48  47  99 W7        29.78S
BISMARCK       CLOUDY    57  49  74 NW6       29.85R
DICKINSON      CLOUDY    50  44  80 W9        29.88R
GARRISON         N/A     51  46  83 W8        29.82S
HETTINGER ARPT MOCLDY    46  42  86 W3        29.92R
JAMESTOWN      PTCLDY    55  49  80 W10       29.80R
BEACH            N/A     45  45 100 W8        29.91S
CARRINGTON     FAIR      52  50  93 W13G21    29.81R
CROSBY         FAIR      50  46  87 W9        29.82R
HARVEY         MOCLDY    50  46  87 W7        29.81R
HAZEN          CLOUDY    52  46  82 W5        29.86R
LINTON         FAIR      50  48  93 W5        29.86R
MANDAN         CLOUDY    54  46  76 NW8       29.86R
OAKES            N/A     57  52  82 W8        29.82S
RUGBY          FAIR      46  46 100 W7        29.77S
STANLEY        CLOUDY    48  48 100 W8        29.82S
TIOGA          MOCLDY    48  48 100 W8        29.86R
WATFORD CITY   FAIR      46  45  93 SW7       29.84R
$$

CITY           SKY/WX    TMP DP  RH WIND       PRES   REMARKS
GRAND FORKS    CLOUDY    59  51  75 W6        29.73R
GRAND FORKS AF CLOUDY    59  53  80 W8        29.74R
DEVILS LAKE    CLOUDY    55  45  67 W14       29.75R
FARGO          CLOUDY    61  51  70 SW12      29.77R
CANDO          FAIR      50  46  87 W10G16    29.76R
CAVALIER       CLOUDY    57  50  77 W6        29.71R
GRAFTON        CLOUDY    57  52  82 W8        29.72R
GWINNER        CLOUDY    57  50  77 W6        29.82S
LANGDON        CLOUDY    54  48  82 W14       29.73R
ROLLA          MOCLDY    50  46  87 W8        29.77R
WALHALLA         N/A     57  50  77 W10       29.71R
$$

CITY           SKY/WX    TMP DP  RH WIND       PRES   REMARKS
ABERDEEN       PTCLDY    54  47  77 W8        29.84R
MOBRIDGE       MOCLDY    52  47  83 NW7       29.86R
BUFFALO          N/A     44  40  85 W5        29.87R
RAPID CITY     CLOUDY    49  43  80 W5        29.97R
GLASGOW        CLEAR     48  35  60 SW3       29.85S
SIDNEY         MOCLDY    52  43  71 W5        29.89R
WOLF POINT     PTCLDY    46  37  71 W3        29.87R
GLENDIVE       PTCLDY    46  41  81 W7        29.91S
MILES CITY     PTCLDY    47  31  53 NW6       29.93R
BAKER          CLEAR     44  40  85 W5        29.93R
$$

CITY           SKY/WX    TMP DP  RH WIND       PRES   REMARKS
BILLINGS       PTCLDY    49  35  58 SW8       29.97S
GREAT FALLS    CLEAR     45  31  58 SW14      29.91S
REGINA         PTCLDY    41  39  93 W9        29.77R
ESTEVAN        MOCLDY    48  45  87 W9        29.79S
$$



USA.gov is the U.S. government's official web portal to all federal, state and local government web resources and services.